Location: Bord�res
(43.2000°N, 0.2167°W)
Time: 13:56:42
(UTC+00:00)

Cosmos 1844 - Pass Details

Date: 03 March 2021
Orbit: 822 x 868 km, 70.9° (Epoch: 21 April)

Event Time Altitude Azimuth Distance (km) Brightness Sun altitude
Rises 18:33:38 0° 341° (NNW) 3,458 7.1 -8.3°
Reaches altitude 10° 18:36:23 10° 351° (N) 2,513 6.3 -8.8°
Maximum altitude 18:41:32 32° 54° (NE) 1,435 4.5 -9.7°
Enters shadow 18:46:35 10° 117° (ESE) 2,469 5.6 -10.6°
